Regional Weather Roundup
Issued by NWS Glasgow, MT

Home | Current Version | Previous Version | Text Only | Print | Product List | Glossary On
Versions: 1 2 3 4 5 6 7 8 9 10 11 12 13 14 15 16 17 18 19 20 21 22 23 24 25 26 27 28 29 30 31 32 33 34 35 36 37 38 39 40 41 42 43 44 45 46 47 48 49 50
000
ASUS45 KGGW 212115
RWRGGW
HOURLY WEATHER ROUNDUP FOR NORTHEAST MONTANA
NATIONAL WEATHER SERVICE GLASGOW MONTANA
300 PM MDT SUN SEP 21 2014

NOTE: "FAIR" INDICATES FEW OR NO CLOUDS BELOW 12,000 FEET WITH NO
SIGNIFICANT WEATHER AND/OR OBSTRUCTIONS TO VISISBILITY.

NORTHEAST MONTANA


CITY           SKY/WX    TMP DP  RH WIND       PRES   REMARKS
GLASGOW        SUNNY     73  37  27 S8        30.20F
PLENTYWOOD       N/A     74  29  19 W5          N/A
WOLF POINT     SUNNY     77  38  24 CALM      30.21F
JORDAN           N/A     76  40  27 SE7       30.20F
WINNETT          N/A     77  39  25 SE3         N/A
SIDNEY         SUNNY     73  39  29 S8        30.24F
GLENDIVE       NOT AVBL
MALTA            N/A     79  44  28 S6          N/A
SCOBEY           N/A     74  36  25 SW6       30.19F
OPHEIM           N/A     70  34  26 S2        30.04F

FORT PECK REPORTS


CITY           SKY/WX    TMP DP  RH WIND       PRES   REMARKS
FORT PECK        N/A     72  43  35 SE5         N/A
THE PINES        N/A     76  33  21 SE7         N/A

SOUTHEAST MONTANA


CITY           SKY/WX    TMP DP  RH WIND       PRES   REMARKS
BILLINGS       MOSUNNY   77  42  28 E14G20    30.19F
MILES CITY     SUNNY     77  38  24 SE7G16    30.21F
BAKER          SUNNY     73  31  21 MISG      30.27F
LIVINGSTON     SUNNY     72  43  35 E15       30.19F

CENTRAL MONTANA


CITY           SKY/WX    TMP DP  RH WIND       PRES   REMARKS
HAVRE          SUNNY     79  43  27 VRB3      30.11F
LEWISTOWN      SUNNY     78  43  28 E9        30.17F
GREAT FALLS    SUNNY     75  45  34 E9        30.12F
CUT BANK       SUNNY     76  40  27 SE17      30.11F
HELENA         SUNNY     77  44  30 E3        30.11F
BUTTE          MOSUNNY   76  39  26 S8        30.18F
BOZEMAN        MOSUNNY   73  44  35 CALM      30.16F

WESTERN MONTANA


CITY           SKY/WX    TMP DP  RH WIND       PRES   REMARKS
MISSOULA       SUNNY     83  39  21 N3        30.03F
KALISPELL      NOT AVBL

NORTH DAKOTA


CITY           SKY/WX    TMP DP  RH WIND       PRES   REMARKS
WILLISTON      SUNNY     73  37  27 SE8       30.23F
DICKINSON      SUNNY     70  37  29 SE5       30.25F
MINOT          SUNNY     72  39  30 VRB3      30.21F
BISMARCK       SUNNY     74  41  30 NW9       30.24F

SOUTHERN SASKATCHEWAN


CITY           SKY/WX    TMP DP  RH WIND       PRES   REMARKS
REGINA         SUNNY     73  41  31 W9        30.17F
MOOSE JAW      SUNNY     73  41  31 W8        30.17F
ESTEVAN        SUNNY     72  41  33 SW3       30.21F
SWIFT CURRENT  SUNNY     75  36  23 SW15      30.14F



USA.gov is the U.S. government's official web portal to all federal, state and local government web resources and services.